Regional Weather Roundup
Issued by NWS

Home | Current Version | Previous Version | Graphics & Text | Print | Product List | Glossary On
Versions: 1 2 3 4 5 6 7 8 9 10 11 12 13 14 15 16 17 18 19 20 21 22 23 24 25 26 27 28 29 30 31 32 33 34 35 36 37 38 39 40 41 42 43 44 45 46 47 48 49 50
000
ASUS43 KMKX 162011
RWRWI

WISCONSIN REGIONAL WEATHER ROUNDUP
NATIONAL WEATHER SERVICE MILWAUKEE/SULLIVAN WI
200 PM CST SAT DEC 16 2017

NOTE: "FAIR" INDICATES FEW OR NO CLOUDS BELOW 12,000 FEET WITH NO
SIGNIFICANT WEATHER AND/OR OBSTRUCTIONS TO VISIBILITY.

WIZ001-002-006>008-014>016-023>028-162100-
NORTHWEST WISCONSIN

CITY           SKY/WX    TMP DP  RH WIND       PRES   REMARKS
SUPERIOR ARPT  CLOUDY    22  12  65 E9        29.99S WCI  12
ASHLAND        CLOUDY    21  10  62 NE6       30.02R WCI  13
HAYWARD        CLOUDY    20  11  68 E6        29.95R WCI  12
SIREN          CLOUDY    24  16  72 NE6       29.95R WCI  17
CUMBERLAND     CLOUDY    23  16  74 E7        29.92R WCI  15
RICE LAKE      MOSUNNY   24  16  72 CALM      29.93F
CHETEK         SUNNY     24  16  71 SE3       29.92F
LADYSMITH      CLOUDY    22  14  70 E9        29.94S WCI  12
EAU CLAIRE     SUNNY     25  17  72 E9        29.91F WCI  15
MENOMONIE      SUNNY     28  18  68 E6        29.92S WCI  21
NEW RICHMOND   MOSUNNY   27  18  67 E7        29.92R WCI  19
OSCEOLA        PTSUNNY   27  19  71 CALM      29.96R
$$

WIZ003>005-009-010-017-018-162100-
NORTH CENTRAL WISCONSIN

CITY           SKY/WX    TMP DP  RH WIND       PRES   REMARKS
MANITOWISH WTR CLOUDY    18   8  65 E5        29.94R WCI  11
ARBOR VITAE    CLOUDY    19   9  64 SE8       29.93S WCI   9
WOODRUFF       CLOUDY    19   9  64 SE8       29.93S WCI   9
RHINELANDER    CLOUDY    17   9  70 SE8       29.95R WCI   7
EAGLE RIVER    CLOUDY    19   8  62 SE5       29.94S WCI  12
LAND O LAKES   CLOUDY    19   8  62 SE5       29.96S WCI  12
PHILLIPS       CLOUDY    17  10  71 E5        29.93R WCI  10
TOMAHAWK       CLOUDY    18  10  73 CALM      29.95R
MEDFORD        CLOUDY    20  12  72 SE7G16    29.92S WCI  11
MERRILL        CLOUDY    20  11  68 E7        29.95F WCI  11
$$

WIZ029-030-035-036-043>047-162100-
CENTRAL WISCONSIN

CITY           SKY/WX    TMP DP  RH WIND       PRES   REMARKS
WAUSAU         CLOUDY    20  12  71 E7        29.95R WCI  11
MOSINEE        CLOUDY    21  14  73 E8        29.96R WCI  12
MARSHFIELD     CLOUDY    22  16  78 E10       29.93R WCI  11
STEVENS POINT  CLOUDY    20  13  73 NE8       29.96R WCI  11
WAUPACA        CLOUDY    26  16  67 NE6       29.98R WCI  19
WAUTOMA        CLOUDY    25  20  81 NE10      29.95R WCI  15
WISC RAPIDS    CLOUDY    23  16  74 E9        29.96R WCI  13
CAMP DOUGLAS   CLOUDY    28  23  80 E7        29.92R WCI  21
$$

WIZ011>013-019>022-031-037>040-048>050-162100-
NORTHEAST WISCONSIN

CITY           SKY/WX    TMP DP  RH WIND       PRES   REMARKS
ANTIGO         CLOUDY    18  11  73 E7        29.94F WCI   9
SHAWANO        CLOUDY    24  17  72 NE7       29.99S WCI  16
OCONTO         CLOUDY    24  18  77 N6        30.01S WCI  17
STURGEON BAY   FLURRIES  28  22  78 E10       30.00R WCI  19
GREEN BAY      CLOUDY    27  18  69 NE15      29.99R WCI  15
MANITOWOC      CLOUDY    29  23  78 E9        29.99R WCI  20
APPLETON       CLOUDY    25  16  68 NE6       29.96R WCI  18
CLINTONVILLE   CLOUDY    23  16  74 NE8       29.99R WCI  14
OSHKOSH        CLOUDY    26  21  81 NE9       29.95R WCI  17
$$

WIZ032>034-041-042-053>061-162100-
SOUTHWEST WISCONSIN

CITY           SKY/WX    TMP DP  RH WIND       PRES   REMARKS
LA CROSSE      SUNNY     32  23  69 NE8       29.91R WCI  25
SPARTA         CLOUDY    29  23  76 NE10      29.92S WCI  20
VIROQUA        SUNNY     31  26  81 CALM      29.86R
BOSCOBEL       SUNNY     41  27  57 VRB6      29.88R
PRAIRIE DU CHI SUNNY     44  24  46 NE3       29.86R
PLATTEVILLE    SUNNY     43  28  53 SE3       29.86R
$$

WIZ056-057-062-063-064-067-068-162100-
SOUTH CENTRAL WISCONSIN

CITY           SKY/WX    TMP DP  RH WIND       PRES   REMARKS
REEDSBURG      CLOUDY    29  25  84 E6        29.90S WCI  23
BARABOO/DELLS  CLOUDY    28  25  87 E8        29.90S WCI  20
LONE ROCK      SUNNY     40  28  62 E9        29.89R WCI  34
MINERAL POINT  SUNNY     45  27  49 SE5       29.85S
MADISON        MOSUNNY   39  30  70 NE14      29.89S WCI  31
MIDDLETON      SUNNY     41  30  64 NE9       29.88S
WATERTOWN      CLOUDY    33  33  98 E9        29.91R WCI  25
MONROE         SUNNY     43  27  52 NE3       29.86R
JANESVILLE     SUNNY     45  25  45 CALM      29.87R
$$

WIZ051-052-058>065-066-070>072-162100-
SOUTHEAST WISCONSIN

CITY           SKY/WX    TMP DP  RH WIND       PRES   REMARKS
MILWAUKEE      MOSUNNY   39  28  64 NE8       29.91R WCI  33
WAUKESHA       CLOUDY    34  30  86 NE7       29.92R WCI  28
MILWAUKEE/TIMM CLOUDY    34  30  86 NE9       29.92R WCI  26
RACINE         MOSUNNY   41  27  57 E6        29.92R
BURLINGTON     SUNNY     55  42  61 CALM      29.89R
KENOSHA        SUNNY     44  25  47 CALM      29.90R
FOND DU LAC    CLOUDY    31  24  75 E12       29.95R WCI  22
SHEBOYGAN      CLOUDY    30  24  78 NE13      29.96R WCI  20
WEST BEND      CLOUDY    30  30 100 NE10      29.94R WCI  21
JUNEAU         CLOUDY    31  28  88 E7        29.93R WCI  24
$$

LSZ147-162-162100-
LAKE SUPERIOR

STATION/POSITION TIME  TEMP    WIND        PRES    WAVE
                       AIR SEA DIR/SP/G            HT/PER
                 (UTC) (F)     (DEG/KT/KT) (MB)    (FT/S)
DEVILS ISLAND    2000   24     100/ 17/ 19 1017.3S
SAXON HARBOR     1940   23                 1015.6S
$$

LMZ867-665-643>646-162100-
LAKE MICHIGAN

STATION/POSITION TIME  TEMP    WIND        PRES    WAVE
                       AIR SEA DIR/SP/G            HT/PER
                 (UTC) (F)     (DEG/KT/KT) (MB)    (FT/S)
NORTHPORT PIER   1940   25      90/ 11/ 15 1016.6S
KEWAUNEE LAKESHO 1948   30      60/  5/  8 1014.7R
SHEBOYGAN LAKESH 2000   31      60/ 14/ 15 1015.5R
PORT WASHINGTON  1940   34      60/ 11/ 14 1014.9R
MILWAUKEE LAKESH 1950   36      60/ 14/ 16   N/A
KENOSHA   LAKESH 2000   39      90/  5/  6 1012.9
$$

TC  - TEMPERATURE IN CELSIUS
VSB - VISIBILITY IN STATUTE MILES
WCI - WIND CHILL INDEX
HX  - HEAT INDEX




USA.gov is the U.S. government's official web portal to all federal, state and local government web resources and services.